This is the latest recevied weather packets stored in our database for station/object BM2MWA-13. If no packets are shown the sender has not sent any weather packets the latest 10 day(s).
| Time | Temp. | Humidity | Pressure | Rain* | Wind** | Luminosity | Snow |
|---|---|---|---|---|---|---|---|
| 1788578823 | 30° C | 78% | 1003.4 hPa | 0 mm | - | - | - |
| 1788578224 | 30° C | 80% | 1003.5 hPa | 0 mm | - | - | - |
| 1788577623 | 28.89° C | 85% | 1003.6 hPa | 0 mm | - | - | - |
| 1788577024 | 28.33° C | 85% | 1003.8 hPa | 0 mm | - | - | - |
| 1788576425 | 27.78° C | 87% | 1003.8 hPa | 0 mm | - | - | - |
| 1788575823 | 27.78° C | 91% | 1003.8 hPa | 0 mm | - | - | - |
| 1788575224 | 27.78° C | 91% | 1003.8 hPa | 0.51 mm | - | - | - |
| 1788574623 | 27.22° C | 92% | 1003.8 hPa | 0.51 mm | - | - | - |
| 1788574023 | 27.22° C | 91% | 1003.9 hPa | 0.51 mm | - | - | - |
| 1788573424 | 27.22° C | 92% | 1003.9 hPa | 0.51 mm | - | - | - |
| 1788572824 | 27.22° C | 90% | 1003.9 hPa | 0.51 mm | - | - | - |
| 1788572223 | 27.22° C | 93% | 1003.8 hPa | 0.51 mm | - | - | - |
| 1788571623 | 27.22° C | 94% | 1003.8 hPa | 0 mm | - | - | - |
| 1788571023 | 27.22° C | 93% | 1003.8 hPa | 0 mm | - | - | - |
| 1788570423 | 27.22° C | 92% | 1003.8 hPa | 0 mm | - | - | - |
| 1788569824 | 27.22° C | 94% | 1003.7 hPa | 0 mm | - | - | - |
| 1788569223 | 26.67° C | 92% | 1003.6 hPa | 0 mm | - | - | - |
| 1788568623 | 26.67° C | 94% | 1003.6 hPa | 0 mm | - | - | - |
| 1788568024 | 27.22° C | 94% | 1003.5 hPa | 1.02 mm | - | - | - |
| 1788567423 | 26.67° C | 95% | 1003.5 hPa | 3.56 mm | - | - | - |
| 1788566823 | 26.67° C | 93% | 1003.4 hPa | 3.56 mm | - | - | - |
| 1788566224 | 26.11° C | 96% | 1003.5 hPa | 3.56 mm | - | - | - |
| 1788565624 | 26.11° C | 97% | 1003.4 hPa | 3.56 mm | - | - | - |
| 1788565024 | 26.11° C | 96% | 1003.4 hPa | 3.56 mm | - | - | - |
| 1788564424 | 26.67° C | 94% | 1003.1 hPa | 2.54 mm | - | - | - |
* Rain latest hour (hover to see other rain measurements)
** Current wind speed in m/s (hover to see current wind gust speed)